Regional Weather Roundup
Issued by NWS

Home | Current Version | Previous Version | Graphics & Text | Print | Product List | Glossary On
Versions: 1 2 3 4 5 6 7 8 9 10 11 12 13 14 15 16 17 18 19 20 21 22 23 24 25 26 27
000
ASUS43 KDMX 230307
RWRIA

WEATHER ROUNDUP FOR IOWA
NATIONAL WEATHER SERVICE DES MOINES IA
1000 PM CDT TUE APR 22 2014

NOTE: "FAIR" INDICATES FEW OR NO CLOUDS BELOW 12,000 FEET WITH NO
SIGNIFICANT WEATHER AND/OR OBSTRUCTIONS TO VISIBILITY.

* - THESE STATIONS ARE NOT NWS STATIONS...THUS NOT UNDER NWS
QUALITY CONTROL.  THEY ALSO DO NOT REPORT WEATHER SUCH
AS PRECIPITATION OR FOG.

IAZ001>003-012>014-020>022-031>034-043>046-230400-
   NORTHWEST IOWA

CITY           SKY/WX    TMP DP  RH WIND       PRES   REMARKS
CARROLL *      CLOUDY    57  34  41 E8        30.02R
CHEROKEE *     CLOUDY    57  36  44 E5        30.01R
DENISON *      CLOUDY    55  36  47 SE6       30.00S
LE MARS *      CLOUDY    57  37  47 SE9       29.99S
ORANGE CITY *  CLOUDY    57  34  41 SE6       29.99S
SHELDON *      CLOUDY    55  36  47 SE9       29.99S
SIOUX CITY     CLOUDY    61  35  37 SE13      29.97S
SPENCER        CLOUDY    56  37  49 S8        30.02R
STORM LAKE *   CLOUDY    55  36  47 E10       30.03R
$$

IAZ055>058-069>071-079>083-090>094-230400-
   SOUTHWEST IOWA

CITY           SKY/WX    TMP DP  RH WIND       PRES   REMARKS
ATLANTIC *     CLOUDY    59  34  38 E6        30.02R
AUDUBON *      MOCLDY    55  30  38 CALM      30.04R
CLARINDA *     CLOUDY    61  34  36 SE8       30.02S
COUNCIL BLFS * CLOUDY    59  37  44 SE9       29.99R
CRESTON *      MOCLDY    55  32  41 E10       30.02F
HARLAN  *      CLOUDY    57  37  47 E7        30.04S
LAMONI         PTCLDY    57  31  37 E5        30.03R
RED OAK *      MOCLDY    59  36  41 SE8       30.00S
SHENANDOAH *   CLOUDY    57  37  47 SE8       30.00S
$$

IAZ047>049-059>061-072>074-084-230400-
   CENTRAL IOWA

CITY           SKY/WX    TMP DP  RH WIND       PRES   REMARKS
AMES           MOCLDY    55  34  45 E6        30.05R
ANKENY *       PTCLDY    55  34  44 E7        30.05S
CHARITON *     CLOUDY    55  36  47 E6        30.04S
DES MOINES     MOCLDY    59  32  36 E8        30.05R
GRINNELL*      CLEAR     52  32  46 NE7       30.06S
KNOXVILLE *    CLOUDY    55  34  44 NE6       30.04R
MARSHALLTOWN     N/A     50  35  56 NE7       30.06R
NEWTON *       MOCLDY    54  32  43 NE7       30.06S
PELLA *        PTCLDY    52  36  54 NE5       30.06R
PERRY *        CLOUDY    57  30  35 E9        30.04S
$$

IAZ004>006-015-016-023>025-035-036-230400-
   NORTH CENTRAL IOWA

CITY           SKY/WX    TMP DP  RH WIND       PRES   REMARKS
ALGONA *       MOCLDY    54  37  54 E13       30.04S
CLARION *      CLOUDY    52  41  66 E12       30.05S
ESTHERVILLE    CLOUDY    54  36  50 E16       30.02R
FORT DODGE *   CLOUDY    55  36  47 E9        30.05R
MASON CITY     PTCLDY    47  37  68 E5        30.08R
FOREST CITY *  CLEAR     46  36  66 E3        30.06R
IOWA FALLS *     N/A     52  36  54 NE5       30.07S
$$

IAZ007>011-017>019-026>030-037>042-050>054-066-230400-
   NORTHEAST IOWA

CITY           SKY/WX    TMP DP  RH WIND       PRES   REMARKS
CEDAR RAPIDS   CLEAR     49  32  52 N5        30.05R
CHARLES CITY * PTCLDY    48  36  61 NE5       30.07F
CLINTON *      CLEAR     41  27  56 N9        30.07R
DECORAH *      MOCLDY    50  25  37 N3        30.07R
DUBUQUE        CLEAR     47  26  44 N6        30.06R
MONTICELLO *   CLEAR     48  30  49 CALM      30.06R
OELWEIN *      CLEAR    N/A N/A N/A N6        30.08R
WATERLOO       CLEAR     45  34  65 N3        30.07R
$$

IAZ064-065-067-068-078-230400-
   EAST CENTRAL IOWA

CITY           SKY/WX    TMP DP  RH WIND       PRES   REMARKS
DAVENPORT      CLEAR     44  29  55 N7        30.05R
IOWA CITY      CLEAR     53  30  41 N6        30.07R
MT. PLEASANT * CLEAR     50  28  43 N7        30.05R
MUSCATINE *    CLEAR     46  30  53 N6        30.05R
QUAD CITIES    CLEAR     53  26  35 CALM      30.04R
$$

IAZ062-063-075>077-085>089-095>099-230400-
   SOUTHEAST IOWA

CITY           SKY/WX    TMP DP  RH WIND       PRES   REMARKS
BURLINGTON     CLEAR     52  30  43 N7        30.03R
FAIRFIELD *    CLEAR     48  30  49 N7        30.05S
FORT MADISON * CLEAR     50  30  46 N3        30.05R
KEOKUK *       CLEAR     55  30  38 N6        30.03R
OSKALOOSA *      N/A     50  34  53 NE5       30.06R
CENTERVILLE *  CLEAR     52  32  46 N3        30.06R
OTTUMWA        CLEAR     52  31  44 NE6       30.05R
WASHINGTON *   CLEAR     48  30  49 N9        30.06R
$$

ABBREVIATIONS USED IN REMARKS
   TC - TEMPERATURES IN CELSIUS
  WCI - WIND CHILL INDEX
   HX - HEAT INDEX
  VSB - VISIBILITY
$$




USA.gov is the U.S. government's official web portal to all federal, state and local government web resources and services.